Погода в Сыктывкаре

Погода в Сыктывкаре : погода сейчас, прогноз погоды и архив. Всё, что Вы хотите узнать о погоде в Сыктывкаре!

Поиск расширенной информации на нашем сайте:

Другие новости

Новости СМИ2

Главная страница сайта

Новости сайта

03.07.2017

Напоминаем, что на нашем специализированном сайте Метеоцентр.Азия вы можете получить высокодетализированные автоматические прогнозы погоды по пунктам России, СНГ и мира в авиационном формате (включающие направление и скорость ветра, видимость, явления погоды, количество и форму облачности, нижнюю и верхнюю границу облачности).


Погода в Сыктывкаре - сегодня

Время (UTC), дата Ветер
(°,м/с) 
Видим.   Явления Облачность Т
(°С)
Тd
(°С)
f(%) Тe
(°С)
Pmin
(гПа)
dP
(гПа)
Po
(мм)
O2
(г/м3)
Тmin Tmax R s Состояние
почвы
00 18.07.17 180 (Ю) 20000 м  {гроза, ливн. осадки}  10/0 средняя, верхняя 
[Ac As|Cc]
+18.5 +15.3 82 +29  1011.8  -0.1  749  279           
03 18.07.17 160 (Ю) 20000 м    9/0 средняя, верхняя 
[Ac trans|Cc]
+21.3 +17.1 77 +34  1011.3  -0.3  748  276  +18.2    0.0    сухая 
06 18.07.17 190 (Ю) 20000 м    9/0 средняя 
[Ac trans]
+21.4 +17.8 80 +35  1011.9  0.5  749  276           
09 18.07.17 180 (Ю) 4-10{10}  20000 м  гроза, ливневой дождь  9/8 800 м кучево-дожд., средняя 
[Cb calv|As trans]
+21.3 +18.1 82 +36  1012.6  0.7  749  276           
12 18.07.17 180 (Ю) 1{10}  20000 м  {гроза, ливн. осадки}  9/3 600 м кучево-дожд., средняя 
[Cb calv|Ac trans]
+22.1 +17.7 76 +36  1011.5  -1  749  275           
15 18.07.17 тихо ()   20000 м    9/4 600 м кучево-дожд., средняя, верхняя 
[Cb calv|Ac trans|Ci fib]
+21.7 +18.3 81 +37  1010.3  -1.2  748  275    +25.1     
18 18.07.17 тихо ()   20000 м  {ливн. осадки}  10/6 700 м кучево-дожд., средняя 
[Cb cap|Ac und]
+19.5 +18.3 93 +35  1010.4  748  277           
21 18.07.17 160 (Ю) 10 км  слаб. ливневой дождь  10/5 600 м кучево-дожд., средняя 
[Cb cap|Ac As]
+18.7 +16.1 85 +31  1009.4  -1  747  278           
00 19.07.17 220 (ЮЗ) 10 км  слаб. ливневой дождь  10/8 500 м кучево-дожд., средняя 
[Cb cap|Ac As]
+16.7 +15.9 95 +28  1009.8  0.3  747  280           
03 19.07.17 270 (З) 10 км  слаб. ливневой дождь  10/10 210 м кучево-дожд. 
[Cb cap]
+15.4 +14.8 96 +24  1010.5  0.6  748  282  +15.4      влажная 
06 19.07.17 300 (СЗ) 10 км  слаб. дождь{ливн. осадки}  10/8 200 м средняя 
[Frnb|As op]
+15.9 +15.3 96 +26  1011.5  748  282  +15.2         
09 19.07.17 270 (З) 20000 м  {ливн. осадки, дождь}  8/5 600 м средняя, верхняя 
[Cu med, cong|Ac trans|Cc]
+21.3 +15.2 68 +30  1011.3  0.1  748  277           
12 19.07.17 300 (СЗ) 20000 м  {дождь}  8/5 600 м средняя 
[Cu med, cong|Ac trans]
+21.7 +15.1 66 +31  1011.2  -0.1  748  276           
15 19.07.17 тихо ()   20000 м    8/3 600 м средняя, верхняя 
[Cu med, cong|Ac trans|Ci fib]
+22.7 +13.5 56 +29  1011  -0.2  748  276    +24.1  0.6     
18 19.07.17 200 (Ю) 20000 м  в посл. час ливневой дождь  9/0 средняя 
[Ac trans]
+16 +15.3 96 +26  1011.9  0.6  749  282           
21 19.07.17 190 (Ю) 10 км    9/0 средняя 
[Ac trans]
+15.1 +14.5 96 +24  1011.9  749  283           
00 20.07.17 190 (Ю) 20000 м    3/0 средняя 
[Ac trans]
+12.9 +12.4 97 +19  1012.7  0.6  749  286           
03 20.07.17 250 (З) 20000 м    ясно 
+16.5 +14.1 86 +25  1013.1  0.6  750  282  +12.5      влажная 
06 20.07.17 250 (З) 20000 м    3/3 600 м верхняя 
[Cu hum|Ci fib]
+19.9 +13.8 68 +28  1013.8  0.9  750  279           
09 20.07.17 240 (ЮЗ) 20000 м    5/5 1000 м 
[Cu hum]
+21.5 +11.7 54 +25  1013.8  0.9  750  278           
12 20.07.17 250 (З) 20000 м    8/3 600 м кучево-дожд., средняя 
[Cb calv|Ac trans]
+21.5 +12.9 58 +27  1013.4  -0.3  750  278           
15 20.07.17 200 (Ю) 20000 м    9/5 600 м кучево-дожд., средняя 
[Cb cap|Ac trans]
+21.8 +12.1 54 +26  1013.5  750  278    +23.6       
18 20.07.17 тихо ()   20000 м  {ливн. осадки}  9/5 600 м кучево-дожд., средняя 
[Cb cap|Ac trans]
+17.3 +14.3 83 +25  1014  0.3  750  281           
21 20.07.17 150 (ЮВ) 10 км    10/5 600 м кучево-дожд., средняя 
[Cb cap|Ac trans]
+15.3 +13.5 89 +23  1014.6  0.5  751  284           
00 21.07.17 110 (В) 10 км  слаб. ливневой дождь  10/6 330 м кучево-дожд., средняя 
[Cb cap|Ac As]
+15.2 +13.3 88 +23  1015  0.4  751  284           
Время (UTC), дата Ветер
(°,м/с) 
Видим.   Явления Облачность Т
(°С)
Тd
(°С)
f(%) Тe
(°С)
Pmin
(гПа)
dP
(гПа)
Po
(мм)
O2
(г/м3)
Тmin Tmax R s Состояние
почвы

Для получения пояснительной информации подведите курсор к названию столбца.

ПОГОДА в Сыктывкаре - архив

Всё, что Вы хотите узнать о погоде в Сыктывкаре - удобно и подробно!

Выберите нужную дату (начиная с 1 января 2015* года) и нажмите кнопку "Найти".
Будут отображены архивные сводки погоды по пункту Сыктывкар, начиная с указанной даты.


Отображать данные в формате CSV (для использования в таблицах Excel)


Внимание! Наш архив погоды предназначен исключительно для личного некоммерческого использования в познавательных целях. Если Вам необходимы официальные справки о состоянии погоды (для производственных, юридических, коммерческих и т.п. целей), обращайтесь в органы Росгидромета.

*Примечание: данная дата относится к архиву по метеостанциям СССР (Россия, СНГ, Балтия).
Архив по метеостанциям Зарубежной Европы и Азии (кроме Китая) хранится 10 дней, по другим регионам земного шара (Китай, Африка, Америка, Австралия, Океания) - 1 день.

Сыктывкар - район местоположения метеостанции


Название, широта, долгота, высота метеостанции:
Сыктывкар (город) 61.7°ш. 50.8°д. 104 м над ур. моря [Российская Федерация]

Дополнительная информация

В oтличие oт бoльшинства пoгoдных сайтoв мы публикуем пoдрoбную метеoинфoрмацию в детальнoм прoфессиoнальнoм фoрмате.

Характеристики температуры и влажнoсти вoздуха измеряются на высoте 2 м в тени вдали oт зданий и деревьев.
Скoрoсть ветра измеряется на высoте 10 м (на урoвне рoста челoвека скoрoсть ветра ниже в 1.5-2 раза). Если метеoстанция нахoдится в гoрoде или в лесу, тo скoрoсть ветра занижена на 2-4 м/с пo сравнению с oткрытым местoм. Скoрoсть ветра над акватoриями крупных рек и oзёр, а также на вершинах хoлмoв на 2-5 м/с выше, чем в oбычных услoвиях.
Атмoсфернoе давление в разных тoчках местнoсти мoжет значительнo oтличаться oт давления на метеoстанции, в зависимoсти oт услoвий рельефа (при пoдъёме на 10 м давление пoнижается примернo на 1 мм рт.ст.).